COSMOS 1275 DEB, 18640

Orbit data source: Space-Track

COSMOS 1275 DEB, 18640 is space debris in LEO originally from a launch on Thu, 04 Jun 1981 UTC launched from the Plesetsk Missile And Space Complex (PKMTR). Debris objects in space refer to the collection of defunct objects orbiting the Earth. Examples of debris include non-operational satellites, rocket bodies, and fragments generated from explosions, collisions, or faulty payload assembly.

Loading next visibility...
Identifier
18640, 1981-053MA
Orbit
LEO
Country
Flag of CISCIS
Related business
Manufacturer
Unknown
Mission
Spacecraft
Bus & Motor
Unknown
Mass
Unknown
Launch date (UTC)
1981-06-04 (44 years ago)
Launch vehicle
Unknown
Launch site
Plesetsk Missile And Space Complex (PKMTR)
Object type
Payload
Rocket body
Debris
Shape & HBR
Unknown shape, 0.1 m
Radar Cross Section
Small (<0.1 m²)

Expand to show TLE details & history
Last TLE update: 1 day ago

TLE from 1 day ago
0 COSMOS 1275 DEB
1 18640U 81053MA  25303.83300966  .00002094  00000-0  17331-2 0  9996
2 18640  83.2038 247.3176 0081219 187.5677 204.0824 13.86923748 29975
Epoch: 2025-10-30T19:59Z
TLE epoch observation values (Epoch: 2025-10-30T19:59:32.034Z)
Latitude
31.08304°
Longitude
-87.8535°
Altitude
997.733 km
Speed
7.328 km/s
True Right ascension
16h 45m 39s
True Declination
30° 56' 10"
Sunlit
Object was in daylight at epoch
Visualization orbit readout
Latitude
Unknown
Longitude
Unknown
Altitude
Unknown
Speed
Unknown
Apparent Right ascension
Unknown
Apparent Declination
Unknown
Sunlit
N/A
Visualization observer readout
Local Sidereal Time
22:13:38
Azimuth
Unknown
Elevation
Unknown
Doppler factor
Unknown
Orbital elements
Apogee altitude
995.963 km
Perigee altitude
877.144 km
Semi-major axis
7,314.69 km
Eccentricity
0.00812
Inclination
83.2038°
RAAN
247.3176°
Arg. of periapsis
187.5677°
True anomaly
203.70612°
Mean anomaly
204.0824°
Eccentric anomaly
203.89391°
Mean motion
3.46936 °/min
Orbital period
103.77 mins
BSTAR
0.0017331
Loading maneuver chart data...
Computing Atmospheric mass density...
Loading historical data...
Loading historical data...
Loading historical data...
Loading historical data...
Loading historical data...
Loading historical data...
Loading historical data...

Documentation

Showing up to 5 results
|